Location: Voorhees State Park
(40.6817°N, 74.8983°W)
Time: 03:19:23
(UTC-04:00)

Daily predictions for brighter satellites

Satellite Brightness Start Highest point End
(mag) Time Altitude Azimuth Time Altitude Azimuth Time Altitude Azimuth
Cosmos 2237 Rocket 3.6 00:12:25 33° NW 00:12:25 33° NW 00:16:35 10° N
COSMOS 2455 3.9 00:06:09 10° NNW 00:10:05 42° NNW 00:10:05 42° NNW
Cosmos 2369 Rocket 4.2 00:09:58 10° N 00:13:27 20° NE 00:13:27 20° NE
CENTAUR R/B 3.4 00:23:59 10° NW 00:30:30 61° WNW 00:30:30 61° WNW
ATLAS CENTAUR R/B 3.9 00:25:00 10° NW 00:33:12 43° N 00:33:12 43° N
USA 215 4.2 00:46:20 40° NE 00:47:02 42° NNE 00:53:05 10° NW
CZ-2C R/B 4.5 01:01:32 10° N 01:04:26 27° NNW 01:04:26 27° NNW
SL-16 R/B 4.1 01:21:36 23° NW 01:21:36 23° NW 01:25:07 10° N
Mayak 1.8 01:21:15 10° N 01:21:40 12° N 01:21:40 12° N
Cosmos 1943 Rocket 3.8 01:29:57 10° NNW 01:33:00 30° N 01:33:00 30° N
Cosmos 2369 Rocket 4.0 01:53:01 10° NNW 01:55:12 24° NW 01:55:12 24° NW
Cosmos 1943 4.5 02:12:12 35° N 02:12:12 35° N 02:15:47 10° NNE
BREEZE-M DEB (TANK) 4.0 02:11:46 59° NNE 02:11:46 59° NNE 02:23:25 10° ENE
SL-16 R/B 3.8 02:19:37 30° E 02:21:09 34° ENE 02:26:37 10° N
USA 229 DEB 4.4 02:16:32 10° NNW 02:23:31 52° NE 02:26:53 31° ESE
USA 229 4.4 02:16:39 10° NNW 02:23:37 52° NE 02:27:08 30° ESE
ADEOS Rocket 3.3 02:35:19 10° NNE 02:39:29 54° NNE 02:39:29 54° NNE
NPP 4.2 02:46:01 10° NNE 02:50:12 55° NNE 02:50:12 55° NNE
Resurs 1-4 Rocket 2.6 02:59:52 10° NNE 03:04:34 54° ENE 03:04:34 54° ENE
ARIANE 5 R/B 3.2 03:01:45 10° NNE 03:06:36 48° E 03:06:36 48° E
COSMOS 2406 3.2 03:14:18 75° N 03:14:18 75° N 03:19:32 10° NNE
MOS 1 Rocket 4.0 03:14:07 10° NNE 03:17:37 47° ENE 03:17:37 47° ENE
Cosmos 292 Rocket 4.2 03:23:11 60° NE 03:23:11 60° NE 03:27:14 10° NNE
Sich 1 3.9 03:18:57 10° N 03:22:39 46° NE 03:22:39 46° NE
CZ-2D R/B 2.0 03:20:32 10° NNE 03:25:45 83° NE 03:25:45 83° NE
Cosmos 2285 Rocket 3.8 03:26:51 76° SSW 03:27:25 87° WNW 03:33:52 10° NNE
Cosmos 1300 4.2 03:28:52 35° ENE 03:28:52 35° ENE 03:31:36 10° NNE
Tiangong 2 4.2 03:35:52 12° E 03:35:52 12° E 03:36:12 10° E
IRS-1D 3.5 03:32:05 10° N 03:37:11 77° WNW 03:37:11 77° WNW
BREEZE M DEB (TANK) 2.8 03:40:16 81° NNE 03:40:21 81° NNE 03:49:25 10° ESE
CZ-3A R/B 3.8 03:37:39 10° NW 03:50:25 - SSE 03:43:26 40° W
MOZ.5/SAFIR/RUBIN 5/SL-8 3.9 03:44:20 64° SE 03:44:55 73° ENE 03:49:36 10° N
Spot 4 Rocket 4.1 03:41:29 10° N 03:46:35 62° WNW 03:46:35 62° WNW
ADEOS II 3.9 03:45:44 10° NE 03:50:04 25° E 03:54:22 10° SSE
Cosmos 2123 Rocket 4.4 03:45:56 10° NNW 03:51:28 41° W 03:51:28 41° W
Cosmos 1515 Rocket 4.5 03:53:34 35° SE 03:54:50 45° E 03:59:03 10° NNE
Lacrosse 5 2.9 03:50:03 10° NW 03:54:56 45° NE 03:59:47 10° ESE
Cosmos 1459 Rocket 4.2 03:52:30 32° SSE 03:55:25 67° E 04:01:26 10° NNE
Cosmos 1633 Rocket 3.0 03:51:47 10° N 03:55:55 78° NW 03:55:55 78° NW
Cosmos 2082 Rocket 3.4 03:53:58 21° SSE 03:56:56 35° ESE 04:01:59 10° NE
ADEOS 3.5 03:53:35 10° N 03:58:46 66° WNW 03:59:25 60° WSW
Cosmos 1726 3.3 04:01:54 33° NNW 04:01:54 33° NNW 04:04:17 10° N
Cosmos 2228 Rocket 3.2 04:02:17 52° SSE 04:03:13 70° E 04:07:38 10° NNE
SL-16 R/B 3.0 04:04:43 39° W 04:04:43 39° W 04:10:26 10° NNW
USA 229 DEB 4.3 04:07:53 10° NW 04:14:06 35° WSW 04:14:06 35° WSW
USA 229 4.3 04:07:59 10° NW 04:14:19 35° WSW 04:14:19 35° WSW
Cosmos 1315 Rocket 4.1 04:11:29 10° NNW 04:13:44 27° NW 04:13:44 27° NW
BREEZE M DEB (TANK) 4.2 04:17:25 18° ESE 04:17:25 18° ESE 04:18:16 10° ESE
Cosmos 1328 Rocket 3.4 04:17:08 60° SW 04:17:41 68° W 04:22:03 10° N
NOSS 3-1 (A) 4.0 04:12:00 10° NW 04:19:44 84° WSW 04:28:14 10° SSE
Cosmos 1656 4.2 04:15:30 10° NNW 04:21:10 60° ENE 04:26:47 10° SE
Meteor 2-3 Rocket 4.2 04:16:22 10° N 04:21:59 63° ENE 04:27:38 10° SSE
Meteor 2-10 4.3 04:22:32 37° SW 04:24:40 61° WNW 04:30:14 10° N
Cosmos 1892 3.1 04:23:54 10° N 04:27:43 63° E 04:31:11 12° SSE
Cosmos 2369 3.6 04:22:32 10° NNW 04:28:13 88° ENE 04:33:52 10° SSE
Cosmos 1538 Rocket 4.5 04:26:52 37° WSW 04:28:23 46° WNW 04:33:33 10° N
In-Cosmos 22 Rocket 4.0 04:25:47 10° NNW 04:31:04 61° W 04:34:27 22° S
Cosmos 2061 Rocket 4.0 04:28:51 24° SSW 04:32:52 71° W 04:39:17 10° N
UNKNOWN OBJECT B 3.6 04:31:43 10° N 04:35:27 34° WNW 04:35:51 33° W
Cosmos 923 Rocket 3.9 04:34:15 28° SSW 04:37:04 85° WNW 04:42:22 10° NNE
Cosmos 2016 Rocket 3.9 04:34:36 19° SSW 04:39:11 79° W 04:45:18 10° N
Cosmos 1933 Rocket 3.5 04:36:17 10° NNW 04:40:42 62° W 04:43:42 20° S
BREEZE-M DEB (TANK) 3.5 04:38:34 15° WNW 04:41:35 66° NNE 04:51:24 10° ESE
Cosmos 1151 Rocket 3.0 04:41:22 31° SSW 04:43:15 63° W 04:47:30 10° N
Hubble Space Telescope 2.8 04:44:31 14° S 04:44:31 14° S 04:46:28 10° SSE
Resurs 1-4 Rocket 3.6 04:40:49 10° NNW 04:44:26 19° WNW 04:45:39 18° W
ARIANE 5 R/B 3.9 04:41:40 10° NNW 04:45:35 22° WNW 04:46:56 20° W
NOSS 3-1 (C) 4.3 04:40:15 10° NW 04:47:34 46° WSW 04:55:30 10° S
Meteor 1-27 4.1 04:44:07 18° SSW 04:48:25 74° W 04:54:02 10° N
Cosmos 1833 Rocket 2.6 04:45:25 20° SSW 04:49:23 87° WNW 04:55:04 10° NNE
Cosmos 1725 Rocket 3.9 04:47:53 10° S 04:54:04 85° W 05:00:17 10° N
Cosmos 1680 Rocket 3.5 04:51:05 19° SSW 04:54:56 77° WNW 05:00:17 10° NNE
Cosmos 1802 Rocket 4.4 04:57:19 19° SW 05:01:32 44° WNW 05:07:32 10° N
Cosmos 2112 Rocket 4.0 04:58:06 15° SSW 05:02:30 77° WNW 05:07:53 10° NNE
PSLV R/B 3.8 05:02:49 29° WSW 05:03:40 35° SSW 05:06:39 10° SE
CZ-4B R/B 3.1 04:59:29 10° N 05:03:59 83° WNW 05:08:31 10° SSW
Okean O Rocket 1.7 04:59:42 10° NNE 05:04:09 81° ESE 05:08:31 10° S
CZ-2D R/B 4.0 05:02:50 10° NNW 05:05:12 13° WNW 05:07:04 11° W
Cosmos 1980 Rocket 2.9 05:01:29 10° NNW 05:07:01 58° ENE 05:12:33 10° SE
Tiangong 2 1.1 05:08:15 23° W 05:10:07 77° NNW 05:13:21 10° ENE
Shenzhou-11 Module 2.3 05:14:00 18° W 05:16:09 61° N 05:19:13 10° ENE
Cosmos 2278 4.2 05:11:31 10° NW 05:16:40 37° WSW 05:21:47 10° S
Cosmos 1455 2.8 05:16:37 15° SW 05:19:16 36° WNW 05:22:46 10° N
Cosmos 2056 Rocket 4.1 05:15:43 10° NNW 05:21:06 65° ENE 05:26:28 10° SSE
Cosmos 1697 Rocket 2.7 05:15:51 10° NNW 05:21:28 64° WSW 05:27:03 10° S
Tsikada Rocket 4.1 05:15:55 10° NNW 05:22:07 59° W 05:28:21 10° S
ADEOS II 2.7 05:25:01 10° N 05:29:51 39° WNW 05:34:42 10° SW
COSMOS 2487 4.0 05:28:16 13° WSW 05:30:20 20° WNW 05:33:03 10° NNW
EO 1 Del DPAF 4.2 05:26:49 10° SSE 05:30:32 52° ENE 05:34:18 10° N
CZ-4B DEB 4.3 05:29:51 10° N 05:35:20 64° WNW 05:40:44 10° SSW
Lacrosse 5 2.6 05:33:17 10° WNW 05:37:45 32° SW 05:42:12 10° S
CRYOSAT 2 4.3 05:35:13 10° N 05:40:04 82° W 05:44:55 10° S
Cosmos 2082 Rocket 3.0 05:35:57 10° WSW 05:40:58 33° WNW 05:46:03 10° N
Meteor PRIRODA 3.6 05:38:24 10° N 05:42:03 67° WNW 05:45:39 10° SSW
Cosmos 2084 3.9 05:40:20 10° WSW 05:44:08 39° NW 05:47:47 10° NNE
Cosmos 1862 3.6 05:40:46 10° N 05:44:50 74° E 05:48:53 10° SSE
Cosmos 1869 Rocket 4.0 05:42:26 10° NNW 05:46:38 41° W 05:50:47 10° SSW
COSMO-SKYMED 1 4.1 05:45:14 10° SE 05:49:20 43° ENE 05:53:27 10° N
OAO 2 Rocket 4.0 05:46:46 10° WSW 05:51:24 42° S 05:56:06 10° ESE
